EN

Hourly Weather Panovka

Today, 25 February, Thursday

Time Temperature Precipitation Wind Pressure Humidity
00:00 -25°C° 0 mm 1 mps 766 mmHg 97%
01:00 -25°C° 0 mm 1 mps 766 mmHg 96%
02:00 -24°C° 0 mm 1 mps 766 mmHg 96%
03:00 -27°C° 0 mm 2 mps 765 mmHg 96%
04:00 -27°C° 0 mm 2 mps 764 mmHg 95%
05:00 -26°C° 0 mm 2 mps 763 mmHg 94%
06:00 -27°C° 0 mm 3 mps 763 mmHg 94%
07:00 -26°C° 0 mm 3 mps 762 mmHg 93%
08:00 -26°C° 0 mm 4 mps 761 mmHg 92%
09:00 -26°C° 0 mm 5 mps 761 mmHg 90%
10:00 -25°C° 0.1 mm 5 mps 760 mmHg 92%
11:00 -24°C° 0.1 mm 6 mps 759 mmHg 93%
12:00 -24°C° 0.1 mm 7 mps 758 mmHg 95%
13:00 -23°C° 0.4 mm 7 mps 757 mmHg 95%
14:00 -23°C° 0.4 mm 7 mps 756 mmHg 94%
15:00 -21°C° 0.4 mm 7 mps 756 mmHg 94%
16:00 -21°C° 0.5 mm 7 mps 755 mmHg 94%
17:00 -21°C° 0.5 mm 6 mps 754 mmHg 94%
18:00 -21°C° 0.5 mm 6 mps 754 mmHg 94%
19:00 -21°C° 0.2 mm 6 mps 753 mmHg 94%
20:00 -20°C° 0.2 mm 5 mps 753 mmHg 94%
21:00 -20°C° 0.2 mm 5 mps 753 mmHg 94%
22:00 -20°C° 0.1 mm 5 mps 752 mmHg 94%
23:00 -21°C° 0.1 mm 5 mps 752 mmHg 94%

Tomorrow, 26 February, Friday

Time Temperature Precipitation Wind Pressure Humidity
00:00 -20°C° 0.1 mm 4 mps 752 mmHg 94%
01:00 -20°C° 0.1 mm 4 mps 752 mmHg 95%
02:00 -20°C° 0.1 mm 4 mps 752 mmHg 95%
03:00 -20°C° 0.1 mm 4 mps 752 mmHg 95%
04:00 -20°C° 0 mm 4 mps 752 mmHg 95%
05:00 -20°C° 0 mm 4 mps 751 mmHg 95%
06:00 -22°C° 0 mm 4 mps 751 mmHg 95%
07:00 -20°C° 0 mm 4 mps 751 mmHg 95%
08:00 -20°C° 0 mm 4 mps 751 mmHg 95%
09:00 -20°C° 0 mm 4 mps 751 mmHg 95%
10:00 -19°C° 0 mm 4 mps 751 mmHg 94%
11:00 -19°C° 0 mm 5 mps 750 mmHg 93%
12:00 -18°C° 0 mm 5 mps 750 mmHg 93%
13:00 -17°C° 0 mm 5 mps 749 mmHg 92%
14:00 -16°C° 0 mm 6 mps 749 mmHg 92%
15:00 -16°C° 0 mm 6 mps 748 mmHg 92%
16:00 -16°C° 0.2 mm 6 mps 747 mmHg 92%
17:00 -15°C° 0.2 mm 7 mps 746 mmHg 93%
18:00 -15°C° 0.2 mm 7 mps 744 mmHg 94%
19:00 -16°C° 1.3 mm 8 mps 743 mmHg 94%
20:00 -15°C° 1.3 mm 8 mps 742 mmHg 94%
21:00 -15°C° 1.3 mm 8 mps 741 mmHg 94%
22:00 -13°C° 1.1 mm 7 mps 740 mmHg 94%
23:00 -11°C° 1.1 mm 6 mps 739 mmHg 95%

Day after tomorrow, 27 February, Saturday

Time Temperature Precipitation Wind Pressure Humidity
00:00 -10°C° 1.1 mm 5 mps 738 mmHg 95%
01:00 -8°C° 0.2 mm 4 mps 738 mmHg 95%
02:00 -5°C° 0.2 mm 3 mps 738 mmHg 95%
03:00 -3°C° 0.2 mm 2 mps 738 mmHg 95%
04:00 -2°C° 0.3 mm 2 mps 738 mmHg 96%
05:00 -2°C° 0.3 mm 3 mps 737 mmHg 97%
06:00 -1°C° 0.3 mm 3 mps 737 mmHg 98%
07:00 -1°C° 0.3 mm 3 mps 737 mmHg 98%
08:00 -1°C° 0.3 mm 3 mps 737 mmHg 98%
09:00 -2°C° 0.3 mm 4 mps 737 mmHg 99%
10:00 -1°C° 0.3 mm 3 mps 737 mmHg 99%
11:00 -1°C° 0.3 mm 3 mps 737 mmHg 99%
12:00 -1°C° 0.3 mm 3 mps 737 mmHg 99%
13:00 -1°C° 0.2 mm 3 mps 737 mmHg 99%
14:00 -1°C° 0.2 mm 2 mps 738 mmHg 99%
15:00 -1°C° 0.2 mm 2 mps 738 mmHg 99%
16:00 -2°C° 0.2 mm 3 mps 738 mmHg 98%
17:00 -5°C° 0.2 mm 3 mps 739 mmHg 97%
18:00 -7°C° 0.2 mm 4 mps 739 mmHg 96%
19:00 -9°C° 0.1 mm 4 mps 740 mmHg 95%
20:00 -11°C° 0.1 mm 5 mps 740 mmHg 94%
21:00 -13°C° 0.1 mm 5 mps 740 mmHg 94%
22:00 -14°C° 0 mm 5 mps 741 mmHg 94%
23:00 -15°C° 0 mm 5 mps 741 mmHg 94%

28 February, Sunday

Time Temperature Precipitation Wind Pressure Humidity
00:00 -15°C° 0 mm 5 mps 742 mmHg 94%
01:00 -17°C° 0.1 mm 5 mps 742 mmHg 94%
02:00 -17°C° 0.1 mm 5 mps 743 mmHg 93%
03:00 -17°C° 0.1 mm 5 mps 744 mmHg 93%
04:00 -18°C° 0 mm 5 mps 744 mmHg 93%
05:00 -18°C° 0 mm 5 mps 745 mmHg 93%
06:00 -19°C° 0 mm 5 mps 745 mmHg 93%
07:00 -20°C° 0 mm 5 mps 746 mmHg 94%
08:00 -20°C° 0 mm 5 mps 746 mmHg 94%
09:00 -21°C° 0 mm 5 mps 747 mmHg 94%
10:00 -20°C° 0 mm 5 mps 747 mmHg 93%
11:00 -20°C° 0 mm 5 mps 748 mmHg 93%
12:00 -19°C° 0 mm 5 mps 748 mmHg 92%
13:00 -19°C° 0 mm 5 mps 749 mmHg 92%
14:00 -19°C° 0 mm 5 mps 749 mmHg 91%
15:00 -18°C° 0 mm 5 mps 750 mmHg 90%
16:00 -19°C° 0 mm 5 mps 750 mmHg 92%
17:00 -20°C° 0 mm 4 mps 751 mmHg 93%
18:00 -22°C° 0 mm 4 mps 752 mmHg 94%
19:00 -23°C° 0 mm 4 mps 752 mmHg 95%
20:00 -23°C° 0 mm 3 mps 753 mmHg 96%
21:00 -24°C° 0 mm 3 mps 753 mmHg 97%
22:00 -24°C° 0 mm 3 mps 754 mmHg 97%
23:00 -25°C° 0 mm 3 mps 754 mmHg 97%

1 March, Monday

Time Temperature Precipitation Wind Pressure Humidity
00:00 -26°C° 0 mm 3 mps 754 mmHg 97%
01:00 -26°C° 0 mm 3 mps 755 mmHg 97%
02:00 -26°C° 0 mm 3 mps 755 mmHg 97%
03:00 -27°C° 0 mm 3 mps 756 mmHg 98%
04:00 -27°C° 0 mm 3 mps 756 mmHg 98%
05:00 -27°C° 0 mm 3 mps 756 mmHg 98%
06:00 -26°C° 0 mm 2 mps 756 mmHg 98%
07:00 -25°C° 0 mm 2 mps 757 mmHg 97%
08:00 -24°C° 0 mm 2 mps 757 mmHg 97%
09:00 -23°C° 0 mm 2 mps 757 mmHg 96%
10:00 -21°C° 0 mm 2 mps 757 mmHg 94%
11:00 -19°C° 0 mm 2 mps 757 mmHg 92%
12:00 -18°C° 0 mm 2 mps 757 mmHg 90%
13:00 -17°C° 0 mm 2 mps 756 mmHg 90%
14:00 -16°C° 0 mm 2 mps 756 mmHg 90%
15:00 -16°C° 0 mm 3 mps 756 mmHg 90%
16:00 -16°C° 0 mm 3 mps 755 mmHg 92%
17:00 -17°C° 0 mm 3 mps 754 mmHg 93%
18:00 -18°C° 0 mm 4 mps 754 mmHg 94%
19:00 -17°C° 0 mm 4 mps 753 mmHg 93%
20:00 -17°C° 0 mm 5 mps 752 mmHg 93%
21:00 -15°C° 0 mm 5 mps 751 mmHg 93%
22:00 -14°C° 0.4 mm 5 mps 750 mmHg 93%
23:00 -14°C° 0.4 mm 6 mps 749 mmHg 94%

2 March, Tuesday

Time Temperature Precipitation Wind Pressure Humidity
00:00 -12°C° 0.4 mm 6 mps 748 mmHg 94%
01:00 -11°C° 0.5 mm 6 mps 747 mmHg 94%
02:00 -10°C° 0.5 mm 6 mps 745 mmHg 94%
03:00 -9°C° 0.5 mm 6 mps 744 mmHg 94%
04:00 -8°C° 0.3 mm 6 mps 743 mmHg 95%
05:00 -6°C° 0.3 mm 6 mps 743 mmHg 95%
06:00 -5°C° 0.3 mm 6 mps 742 mmHg 96%
07:00 -4°C° 0.5 mm 6 mps 741 mmHg 96%
08:00 -3°C° 0.5 mm 6 mps 741 mmHg 97%
09:00 -2°C° 0.5 mm 6 mps 740 mmHg 98%
10:00 -2°C° 0.1 mm 6 mps 740 mmHg 97%
11:00 -2°C° 0.1 mm 6 mps 740 mmHg 97%
12:00 -2°C° 0.1 mm 7 mps 740 mmHg 97%
13:00 -2°C° 0.1 mm 7 mps 740 mmHg 93%
14:00 -2°C° 0.1 mm 7 mps 740 mmHg 90%
15:00 -2°C° 0.1 mm 7 mps 740 mmHg 86%
16:00 -3°C° 0 mm 6 mps 740 mmHg 86%
17:00 -4°C° 0 mm 5 mps 741 mmHg 87%
18:00 -3°C° 0 mm 4 mps 741 mmHg 87%
19:00 -4°C° 0 mm 4 mps 741 mmHg 89%
20:00 -5°C° 0 mm 4 mps 741 mmHg 90%
21:00 -5°C° 0 mm 4 mps 742 mmHg 92%
22:00 -5°C° 0 mm 4 mps 741 mmHg 93%
23:00 -7°C° 0 mm 4 mps 741 mmHg 94%
Show more

We Need Your Consent

Meteoprog and our Service Providers may store and access personal data such as cookies, device identifiers or other similar technologies on your device and process such data to personalise content and ads, as well as provide social media features and to analyse the traffic.

  • Store and/or access information on your device

    Cookies, device identifiers or other information can be stored or accessed on your device for the purposes indicated above.

  • Personalised ads and content, ad and content measurement, audience insights, and products development

    Ads and content can be personalised based on a profile. More data can be added to better personalise ads and content. Ad and content performance can be measured. Insights about the audience who saw the ads and content can be derived. Such data can be used to develop or improve user’s experience, systems and software.

By clicking ‘I Agree’ you will allow the use of indicated cookies, device identifiers, web beacons or other similar technologies. Your settings can be changed in the browser on your device.

For certain purposes, legitimate interests may be relied on, rather than consent. You can read more about this in our Privacy and Cookie Policy.